This is the latest recevied weather packets stored in our database for station/object 4S6DRJ-13. If no packets are shown the sender has not sent any weather packets the latest 1 day(s).
| Time | Temp. | Humidity | Pressure | Rain* | Wind** | Luminosity | Snow |
|---|---|---|---|---|---|---|---|
| 1778125104 | 30° C | 77% | 1005.8 hPa | 0 mm | 0.45 m/s, 138° | 488 W/m² | - |
| 1778124981 | 29.44° C | 79% | 1005.5 hPa | 0 mm | 0.45 m/s, 181° | 518 W/m² | - |
| 1778124921 | 29.44° C | 79% | 1005.5 hPa | 0 mm | 0.45 m/s, 103° | 537 W/m² | - |
| 1778124797 | 29.44° C | 80% | 1005.5 hPa | 0 mm | 0.45 m/s, 59° | 635 W/m² | - |
| 1778124554 | 29.44° C | 81% | 1005.7 hPa | 0 mm | 1.34 m/s, 54° | 691 W/m² | - |
| 1778124371 | 28.89° C | 82% | 1005.7 hPa | 0 mm | 0.89 m/s, 137° | 628 W/m² | - |
| 1778124249 | 28.89° C | 81% | 1005.6 hPa | 0 mm | 1.34 m/s, 102° | 634 W/m² | - |
| 1778124188 | 28.89° C | 82% | 1005.8 hPa | 0 mm | 0.45 m/s, 76° | 731 W/m² | - |
| 1778124127 | 28.89° C | 82% | 1005.7 hPa | 0 mm | 1.79 m/s, 103° | 702 W/m² | - |
| 1778124066 | 28.89° C | 82% | 1005.7 hPa | 0 mm | 1.34 m/s, 66° | 591 W/m² | - |
| 1778123944 | 28.33° C | 82% | 1005.4 hPa | 0 mm | 0.45 m/s, 49° | 577 W/m² | - |
| 1778123822 | 28.33° C | 82% | 1005.7 hPa | 0 mm | 1.79 m/s, 77° | 523 W/m² | - |
| 1778123761 | 28.33° C | 82% | 1005.6 hPa | 0 mm | 0.89 m/s, 79° | 572 W/m² | - |
| 1778123578 | 28.89° C | 82% | 1005.5 hPa | 0 mm | 0.89 m/s, 101° | 412 W/m² | - |
| 1778123517 | 28.89° C | 82% | 1005.4 hPa | 0 mm | 1.34 m/s, 76° | 407 W/m² | - |
| 1778123395 | 28.33° C | 83% | 1005.6 hPa | 0 mm | 0.89 m/s, 118° | 402 W/m² | - |
| 1778123334 | 28.33° C | 82% | 1005.5 hPa | 0 mm | 0.89 m/s, 128° | 399 W/m² | - |
| 1778123273 | 28.33° C | 84% | 1005.7 hPa | 0 mm | 0.89 m/s, 65° | 399 W/m² | - |
| 1778123212 | 28.33° C | 84% | 1005.6 hPa | 0 mm | 0 m/s | 401 W/m² | - |
| 1778123029 | 28.33° C | 83% | 1005.5 hPa | 0 mm | 1.34 m/s, 125° | 509 W/m² | - |
| 1778122968 | 28.33° C | 83% | 1005.5 hPa | 0 mm | 1.79 m/s, 142° | 541 W/m² | - |
| 1778122907 | 28.33° C | 83% | 1005.5 hPa | 0 mm | 1.79 m/s, 99° | 525 W/m² | - |
| 1778122847 | 28.33° C | 83% | 1005.5 hPa | 0 mm | 1.34 m/s, 105° | 529 W/m² | - |
| 1778122787 | 28.33° C | 83% | 1005.4 hPa | 0 mm | 1.34 m/s, 98° | 557 W/m² | - |
| 1778122724 | 28.33° C | 83% | 1005.6 hPa | 0 mm | 1.34 m/s, 133° | 435 W/m² | - |
* Rain latest hour (hover to see other rain measurements)
** Current wind speed in m/s (hover to see current wind gust speed)